Nadi, Fiji

10:20 AM +12 on September 25, 2017 (GMT +1200)
Nadi International

Weather History for NFFN - August, 2014

Change the Weather History Date:

Friday, August 8, 2014

  Actual Average Record
Temperature  
Mean Temperature 72 °F -  
Max Temperature 84 °F 80 °F 87 °F (2006)
Min Temperature 61 °F 65 °F 61 °F (2014)
Cooling Degree Days 8    
Growing Degree Days 22 (Base 50)    
Moisture  
Dew Point 64 °F    
Average Humidity 74    
Maximum Humidity 100    
Minimum Humidity 46    
Precipitation  
Precipitation 0.00 in 0.08 in - ()
Sea Level Pressure  
Sea Level Pressure 29.99 in    
Wind  
Wind Speed 6 mph ()    
Max Wind Speed 16 mph    
Max Gust Speed -    
Visibility 7.0 miles    
Events      
Averages and records for this station are not official NWS values.
T = Trace of Precipitation, MM = Missing Value Source: Averaged Metar Reports

Daily Weather History Graph

Daily Weather History Graph

Search for Another Location

Airport or City:

Trip Planner

Search our weather history database for the weather conditions in past years. The results will help you decide how hot, cold, wet, or windy it might be!

Date:

Astronomy

Aug. 08, 2014 Rise Set
Actual Time 6:33 AM +12 5:58 PM +12
Civil Twilight 6:11 AM +12 6:20 PM +12
Nautical Twilight 5:45 AM +12 6:46 PM +12
Astronomical Twilight 5:19 AM +12 7:12 PM +12
Moon 3:15 PM +12 (8/8) 3:35 AM +12 (8/8)
Length of Visible Light 12h 09m
Length of Day
11h 24m
Waxing Gibbous, 89% of the Moon is Illuminated
Aug 8
Waxing Gibbous
Aug 11
Full
Aug 18
Last Quarter
Aug 26
New
Sep 2
First Quarter

Hourly Weather History & Observations

Time (+12) Temp. Heat Index Dew Point Humidity Pressure Visibility Wind Dir Wind Speed Gust Speed Precip Events Conditions
12:00 AM 65 °F - 61 °F 83% 30.01 in 12 mi East 5.8 mph - -   Partly Cloudy
12:00 AM 64.4 °F - 60.8 °F 88% 30.01 in 6.2 mi East 5.8 mph - N/A   Scattered Clouds
1:00 AM 66.2 °F - 60.8 °F 83% 30.01 in 6.2 mi ESE 5.8 mph - N/A   Scattered Clouds
2:00 AM 64.4 °F - 60.8 °F 88% 29.98 in 6.2 mi East 2.3 mph - N/A   Scattered Clouds
3:00 AM 62 °F - 60 °F 92% 29.98 in 12 mi Calm Calm - -   Partly Cloudy
3:00 AM 62.6 °F - 60.8 °F 94% 29.98 in 6.2 mi Calm Calm - N/A   Partly Cloudy
4:00 AM 62.6 °F - 60.8 °F 94% 29.95 in 6.2 mi East 3.5 mph - N/A   Partly Cloudy
5:00 AM 62.6 °F - 60.8 °F 94% 29.95 in 6.2 mi East 4.6 mph - N/A   Partly Cloudy
6:00 AM 62 °F - 61 °F 95% 29.98 in 12 mi SE 3.5 mph - -   Partly Cloudy
6:00 AM 62.6 °F - 60.8 °F 94% 29.98 in 6.2 mi SE 3.5 mph - N/A   Partly Cloudy
7:00 AM 60.8 °F - 60.8 °F 100% 29.98 in 6.2 mi SE 3.5 mph - N/A   Scattered Clouds
8:00 AM 68.0 °F - 64.4 °F 88% 30.01 in 6.2 mi SE 4.6 mph - N/A   Mostly Cloudy
9:00 AM 75 °F - 67 °F 69% 30.03 in 31 mi SE 5.8 mph - -   Partly Cloudy
9:00 AM 75.2 °F - 66.2 °F 73% 30.01 in 6.2 mi SE 5.8 mph - N/A   Scattered Clouds
10:00 AM 80.6 °F 82.7 °F 66.2 °F 61% 30.01 in 6.2 mi SE 11.5 mph - N/A   Mostly Cloudy
11:00 AM 82.4 °F 84.6 °F 66.2 °F 58% 30.01 in 6.2 mi ESE 12.7 mph - N/A   Scattered Clouds
12:00 PM 82 °F - 66 °F 49% 29.99 in 31 mi SE 11.5 mph - -   Partly Cloudy
12:00 PM 82.4 °F 84.6 °F 66.2 °F 58% 29.98 in 6.2 mi SE 11.5 mph - N/A   Scattered Clouds
1:00 PM 82.4 °F 84.6 °F 66.2 °F 58% 29.95 in 6.2 mi SE 13.8 mph - N/A   Scattered Clouds
2:00 PM 84.2 °F 86.6 °F 66.2 °F 55% 29.95 in 6.2 mi ESE 11.5 mph - N/A   Scattered Clouds
3:00 PM 83 °F - 65 °F 46% 29.94 in 31 mi SE 15.0 mph - -   Partly Cloudy
3:00 PM 82.4 °F 84.6 °F 66.2 °F 58% 29.92 in 6.2 mi SE 11.5 mph - N/A   Scattered Clouds
4:00 PM 80.6 °F 82.7 °F 66.2 °F 61% 29.92 in 6.2 mi SE 16.1 mph - N/A   Scattered Clouds
5:00 PM 78.8 °F - 64.4 °F 61% 29.95 in 6.2 mi SE 15.0 mph - N/A   Scattered Clouds
6:00 PM 76 °F - 65 °F 60% 29.98 in 31 mi SE 11.5 mph - -   Partly Cloudy
6:00 PM 77.0 °F - 64.4 °F 65% 29.98 in 6.2 mi SE 11.5 mph - N/A   Scattered Clouds
7:00 PM 75.2 °F - 64.4 °F 69% 29.98 in 6.2 mi East 8.1 mph - N/A   Partly Cloudy
8:00 PM 73.4 °F - 66.2 °F 78% 30.01 in 6.2 mi ESE 6.9 mph - N/A   Partly Cloudy
9:00 PM 72 °F - 65 °F 71% 30.04 in 12 mi SE 6.9 mph - -   Partly Cloudy
9:00 PM 71.6 °F - 64.4 °F 78% 30.04 in 6.2 mi SE 6.9 mph - N/A   Partly Cloudy
10:00 PM 71.6 °F - 64.4 °F 78% 30.04 in 6.2 mi SE 6.9 mph - N/A   Partly Cloudy
11:00 PM 69.8 °F - 64.4 °F 83% 30.04 in 6.2 mi SSE 5.8 mph - N/A   Partly Cloudy